"Pseudo-MPEC" for CEQZ132

Created 2026 Sep 4 8:35:06 UT using Find_Orb

Click here for an explanation of pseudo-MPECs

 
 Astrometry: 
     CEQZ132*1C2026 09 02.28825123 20 03.685-22 21 25.52   ~927o       VNEOCPG96
     CEQZ132 1C2026 09 02.30123923 20 04.153-22 19 28.27   ~927o 19.57GVNEOCPG96
     CEQZ132 1C2026 09 02.30656023 20 04.330-22 18 40.28   ~927o 19.72GVNEOCPG96
     CEQZ132 1C2026 09 02.35775123 20 06.112-22 10 56.53   ~928o 19.83GVNEOCPG96
     CEQZ132 1C2026 09 02.35793823 20 06.155-22 10 54.08   ~928o 20.17GVNEOCPG96
     CEQZ132 1C2026 09 02.35958023 20 06.173-22 10 39.65   ~928o 19.54GVNEOCPG96
     CEQZ132 1C2026 09 02.35976723 20 06.184-22 10 37.52   ~928o 19.67GVNEOCPG96
     CEQZ132  C2026 09 03.32808923 21 06.319-19 41 32.67   ~938Z 19.2 GWNEOCPH01
     CEQZ132  C2026 09 03.33274223 21 06.470-19 40 48.79   ~938Z 19.3 GWNEOCPH01
     CEQZ132  C2026 09 03.34329223 21 06.822-19 39 09.72   ~938Z 19.2 GWNEOCPH01
     CEQZ132  C2026 09 03.34909023 21 07.023-19 38 14.75   ~938Z 19.2 GWNEOCPH01
     CEQZ132 KB2026 09 03.92855323 21 44.66 -18 06 43.6    ~93Mo 19.3 GXNEOCPI93
     CEQZ132 KB2026 09 03.93292523 21 44.85 -18 06 02.2    ~93Mo 19.9 GXNEOCPI93
     CEQZ132 KB2026 09 03.93717923 21 45.04 -18 05 21.8    ~93Mo 19.8 GXNEOCPI93

Station data:
(G96) Mt. Lemmon Survey  (N32.442729 W110.788720)
   US/Arizona.  Observer E. J. Christensen. Measurers T. Beuden, V. F.
   Carvajal, D. Fay, J. B. Fazekas, D. C. Fuls, A. R. Gibbs, A. D. Grauer, H.
   Gröller, J. K. Hogan, R. A. Kowalski, S. M. Larson, G. J. Leonard, D.
   Rankin, R. L. Seaman, F. C. Shelly, K. W. Wierzchoś. 1.5-m reflector + 10K
   CCD.
(H01) Magdalena Ridge Observatory, Socorro  (N33.984833 W107.189333)  US/New
   Mexico.  Observers W. H. Ryan, E. V. Ryan. Measurer W. H. Ryan. 2.4-m
   f/8.9 reflector + CCD.
(I93) St Pardon de Conques  (N44.558670 W0.202960)  France.  Observers F.
   Losse, W. D'Anna. Measurer F. Losse. 0.40-m f/3.7 reflector + CCD.

Orbital elements:  CEQZ132
   Perihelion 2026 Sep 10.229368 +/- 0.0426 TT =  5:30:17.3 (JD 2461293.729368)
Epoch 2026 Sep  3.0 TT = JDT 2461286.5   Earth MOID: 0.1148      AutoNEOCP
M 358.340437940 +/- 0.047           (J2000 ecliptic)
n   0.229558391 +/- 0.00606         Peri.    1.160573 +/- 0.045
a   2.641641836 +/- 0.0465          Node   346.579926 +/- 0.0045
e   0.57526922 +/- 0.00707          Incl.   14.469114 +/- 0.11
P   4.29349                H 23.41  G  0.15   U  9.3
q 1.121986573 +/- 0.00107    Q 4.161297100 +/- 0.092
From 14 observations 2026 Sept. 2-3 (39.6 hr); mean residual 0".18
Residuals in arcseconds: 
260902 G96  .00   .12+    260902 G96  .17-  .28-    260903 H01  .02+  .21+    
260902 G96  .08+  .17+    260902 G96  .11-  .15+    260903 I93  .25-  .15+    
260902 G96  .07-  .08+    260903 H01  .06+  .08-    260903 I93  .03-  .04-    
260902 G96  .12-  .51-    260903 H01  .01-  .06+    260903 I93  .27+  .12-    
260902 G96  .38+  .24+    260903 H01  .05-  .15-    

Ephemerides (geocentric):
Date (UTC) HH   RA             Dec           delta  r     elong  mag " sig PA
---- --------  ------------   ------------  ------ ------ -----  --- --------
2026 09 04 09  23 22 09.058   -16 54 02.71  .11817 1.1243 167.8 19.7 .633 157
2026 09 04 10  23 22 11.507   -16 47 18.85  .11811 1.1243 167.9 19.7 .637 156
2026 09 04 11  23 22 13.953   -16 40 34.55  .11806 1.1242 168.0 19.7 .641 156
2026 09 04 12  23 22 16.396   -16 33 49.81  .11800 1.1242 168.1 19.7 .645 155
2026 09 04 13  23 22 18.836   -16 27 04.63  .11794 1.1242 168.2 19.7 .650 154
2026 09 04 14  23 22 21.273   -16 20 19.01  .11788 1.1241 168.3 19.7 .654 153
2026 09 04 15  23 22 23.707   -16 13 32.97  .11782 1.1241 168.4 19.7 .659 153
2026 09 04 16  23 22 26.138   -16 06 46.49  .11777 1.1241 168.5 19.7 .664 152
2026 09 04 17  23 22 28.566   -15 59 59.60  .11771 1.1240 168.6 19.7 .668 151
2026 09 04 18  23 22 30.992   -15 53 12.28  .11766 1.1240 168.6 19.7 .673 151
2026 09 04 19  23 22 33.414   -15 46 24.54  .11760 1.1240 168.7 19.7 .678 150
2026 09 04 20  23 22 35.833   -15 39 36.40  .11755 1.1240 168.8 19.7 .684 149
2026 09 04 21  23 22 38.249   -15 32 47.84  .11750 1.1239 168.9 19.7 .689 149
2026 09 04 22  23 22 40.662   -15 25 58.88  .11744 1.1239 169.0 19.7 .694 148
2026 09 04 23  23 22 43.073   -15 19 09.51  .11739 1.1239 169.1 19.6 .700 147
2026 09 05 00  23 22 45.480   -15 12 19.75  .11734 1.1238 169.2 19.6 .706 146
2026 09 05 01  23 22 47.885   -15 05 29.60  .11729 1.1238 169.3 19.6 .711 146
2026 09 05 02  23 22 50.286   -14 58 39.05  .11724 1.1238 169.4 19.6 .717 145
2026 09 05 03  23 22 52.685   -14 51 48.12  .11719 1.1237 169.5 19.6 .723 144
2026 09 05 04  23 22 55.080   -14 44 56.81  .11714 1.1237 169.6 19.6 .730 144
2026 09 05 05  23 22 57.473   -14 38 05.12  .11709 1.1237 169.6 19.6 .736 143
2026 09 05 06  23 22 59.863   -14 31 13.05  .11704 1.1237 169.7 19.6 .742 142
2026 09 05 07  23 23 02.250   -14 24 20.61  .11699 1.1236 169.8 19.6 .749 141
2026 09 05 08  23 23 04.634   -14 17 27.81  .11694 1.1236 169.9 19.6 .755 141
2026 09 05 09  23 23 07.015   -14 10 34.64  .11690 1.1236 170.0 19.6 .762 140
2026 09 05 10  23 23 09.393   -14 03 41.12  .11685 1.1236 170.1 19.6 .769 139
2026 09 05 11  23 23 11.768   -13 56 47.24  .11681 1.1235 170.2 19.6 .776 139
2026 09 05 12  23 23 14.141   -13 49 53.01  .11676 1.1235 170.3 19.6 .783 138
2026 09 05 13  23 23 16.510   -13 42 58.43  .11672 1.1235 170.4 19.6 .791 137
2026 09 05 14  23 23 18.877   -13 36 03.52  .11667 1.1234 170.5 19.6 .798 137
2026 09 05 15  23 23 21.241   -13 29 08.26  .11663 1.1234 170.5 19.6 .805 136
2026 09 05 16  23 23 23.602   -13 22 12.67  .11659 1.1234 170.6 19.6 .813 135
2026 09 05 17  23 23 25.960   -13 15 16.75  .11654 1.1234 170.7 19.6 .821 135
2026 09 05 18  23 23 28.315   -13 08 20.50  .11650 1.1233 170.8 19.6 .829 134
2026 09 05 19  23 23 30.667   -13 01 23.93  .11646 1.1233 170.9 19.6 .837 133
2026 09 05 20  23 23 33.017   -12 54 27.05  .11642 1.1233 171.0 19.6 .845 133
2026 09 05 21  23 23 35.363   -12 47 29.85  .11638 1.1233 171.1 19.6 .853 132
2026 09 05 22  23 23 37.707   -12 40 32.34  .11634 1.1232 171.2 19.5 .862 131
2026 09 05 23  23 23 40.048   -12 33 34.53  .11630 1.1232 171.3 19.5 .870 131
2026 09 06 00  23 23 42.386   -12 26 36.41  .11626 1.1232 171.3 19.5 .879 130
2026 09 06 01  23 23 44.722   -12 19 38.01  .11623 1.1232 171.4 19.5 .888 129
2026 09 06 02  23 23 47.054   -12 12 39.31  .11619 1.1231 171.5 19.5 .897 129
2026 09 06 03  23 23 49.384   -12 05 40.32  .11615 1.1231 171.6 19.5 .906 128
2026 09 06 04  23 23 51.711   -11 58 41.05  .11612 1.1231 171.7 19.5 .915 127
2026 09 06 05  23 23 54.035   -11 51 41.50  .11608 1.1231 171.8 19.5 .924 127
2026 09 06 06  23 23 56.356   -11 44 41.67  .11605 1.1231 171.9 19.5 .934 126
2026 09 06 07  23 23 58.675   -11 37 41.58  .11601 1.1230 171.9 19.5 .943 125
2026 09 06 08  23 24 00.991   -11 30 41.22  .11598 1.1230 172.0 19.5 .953 125